Regional Weather Roundup
Issued by NWS

Home | Current Version | Previous Version | Graphics & Text | Print | Product List | Glossary On
Versions: 1 2 3 4 5 6 7 8 9 10 11 12 13 14 15 16 17 18 19 20 21 22 23 24 25 26 27 28 29 30 31 32 33 34 35 36 37 38 39 40 41 42 43 44 45 46 47 48 49 50
681
ASUS45 KCYS 082310
RWRWY

WYOMING REGIONAL WEATHER ROUNDUP
NATIONAL WEATHER SERVICE CHEYENNE WY
400 PM MST MON FEB 08 2016

NOTE:  "FAIR" INDICATES FEW OR NO CLOUDS BELOW 12,000 FEET
WITH NO SIGNIFICANT WEATHER AND/OR OBSTRUCTIONS TO VISIBILITY.

WYZ001-090000-
YELLOWSTONE NATIONAL PARK

CITY           SKY/WX    TMP DP  RH WIND       PRES   REMARKS
LK YELLOWSTONE   N/A     37  22  54 W8        30.55S WCI  31
W YELLOWSTONE  NOT AVBL

$$
WYZ002>013-054>058-071-098>099-090000-
NORTHERN WYOMING

CITY           SKY/WX    TMP DP  RH WIND       PRES   REMARKS
JACKSON        SUNNY     28  23  80 CALM      30.57S
CODY           FAIR      50  21  32 NE7       30.36F
GREYBULL       FAIR      44  19  36 S5        30.38F
WORLAND        FAIR      43  19  38 CALM      30.39F
SHERIDAN       MOSUNNY   52  27  37 NW10      30.28F
BUFFALO        FAIR      47  29  49 N16G23    30.31F
GILLETTE       FAIR      45  27  49 NW17      30.29S
HULETT         CLOUDY    41  23  48 NW3       30.29S
NEWCASTLE      FAIR      39  19  45 NW24G32   30.27S WCI  28

$$
WYZ014>020-022>026-101>103-090000-
CENTRAL WYOMING

CITY           SKY/WX    TMP DP  RH WIND       PRES   REMARKS
BIG PINEY      FAIR      38  25  59 N21       30.49S WCI  28
PINEDALE       FAIR      36  25  64 W18G26    30.47S WCI  25
DUBOIS         FAIR      41  19  42 NW22G33   30.44R
LANDER         FAIR      34  19  54 CALM      30.39S
RIVERTON       FAIR      34  21  59 E5        30.41S WCI  30
CASPER         FAIR      37  24  59 SW13      30.39R WCI  29
DOUGLAS        FAIR      41  27  57 NW18G28     N/A

$$
WYZ021-027>030-104>119-090000-
SOUTHERN WYOMING

CITY           SKY/WX    TMP DP  RH WIND       PRES   REMARKS
EVANSTON       FAIR      31  19  61 N6        30.58S WCI  25
KEMMERER       FAIR      32  23  69 W14       30.54R WCI  22
FORT BRIDGER   CLEAR     36  25  64 W24       30.57F WCI  24
ROCK SPRINGS   FAIR      36  26  67 SW23      30.47F WCI  24
DIXON          FAIR      29  19  68 CALM      30.53S
RAWLINS        FAIR      32  21  64 W20       30.44R WCI  20
SARATOGA       FAIR      34  23  64 SW5       30.46R WCI  30
LARAMIE        FAIR      38  24  57 NW16      30.35R WCI  29
CHEYENNE       FAIR      42  24  49 NW18G32   30.31F
TORRINGTON     CLOUDY    43  26  51 NW17G26   30.29F
PINE BLUFFS    FAIR      39  28  65 NW21      30.30F WCI  29

$$




USA.gov is the U.S. government's official web portal to all federal, state and local government web resources and services.